This is the latest recevied weather packets stored in our database for station/object N2XGL-1. If no packets are shown the sender has not sent any weather packets the latest 10 day(s).
| Time | Temp. | Humidity | Pressure | Rain* | Wind** | Luminosity | Snow |
|---|---|---|---|---|---|---|---|
| 1777596329 | 9.44° C | 57% | 1016.2 hPa | 0 mm | - | - | - |
| 1777594689 | 9.44° C | 56% | 1016.3 hPa | 0 mm | - | - | - |
| 1777594179 | 9.44° C | 56% | 1016.3 hPa | 0 mm | - | - | - |
| 1777593669 | 9.44° C | 56% | 1016.2 hPa | 0 mm | - | - | - |
| 1777593109 | 9.44° C | 58% | 1016.2 hPa | 0 mm | - | - | - |
| 1777592529 | 9.44° C | 58% | 1016.2 hPa | 0 mm | - | - | - |
| 1777591449 | 9.44° C | 59% | 1016.1 hPa | 0 mm | - | - | - |
| 1777590913 | 9.44° C | 61% | 1016.1 hPa | 0 mm | - | - | - |
| 1777590327 | 9.44° C | 59% | 1016 hPa | 0 mm | - | - | - |
| 1777589744 | 9.44° C | 59% | 1016 hPa | 0 mm | - | - | - |
| 1777589194 | 9.44° C | 56% | 1016 hPa | 0 mm | - | - | - |
| 1777588634 | 9.44° C | 54% | 1016 hPa | 0 mm | - | - | - |
| 1777588037 | 9.44° C | 57% | 1016 hPa | 0 mm | - | - | - |
| 1777586909 | 9.44° C | 56% | 1016 hPa | 0 mm | - | - | - |
| 1777586419 | 9.44° C | 55% | 1016 hPa | 0 mm | - | - | - |
| 1777585928 | 8.89° C | 56% | 1016.1 hPa | 0 mm | - | - | - |
| 1777585355 | 8.89° C | 55% | 1016.1 hPa | 0 mm | - | - | - |
| 1777584839 | 8.89° C | 56% | 1016.2 hPa | 0 mm | - | - | - |
| 1777584328 | 8.89° C | 56% | 1016.2 hPa | 0 mm | - | - | - |
| 1777583808 | 8.89° C | 56% | 1016.4 hPa | 0 mm | - | - | - |
| 1777583241 | 8.89° C | 55% | 1016.4 hPa | 0 mm | - | - | - |
| 1777582701 | 8.89° C | 55% | 1016.4 hPa | 0 mm | - | - | - |
| 1777582101 | 8.89° C | 55% | 1016.4 hPa | 0 mm | - | - | - |
| 1777581514 | 8.89° C | 54% | 1016.4 hPa | 0 mm | - | - | - |
| 1777580939 | 9.44° C | 53% | 1016.4 hPa | 0 mm | - | - | - |
* Rain latest hour (hover to see other rain measurements)
** Current wind speed in m/s (hover to see current wind gust speed)